Home > Weather > Garland > Past weeks

Flag for U.S.A. Weather for the Past 2 Weeks in Garland, Texas, U.S.A.

Now
49 °F

Clear.


Feels Like: 45 °F
Forecast: 45 / 69 °F
Wind: 8 mph from North

Location: Mesquite Metro Airport

Current Time: Feb 12, 2016 at 2:47:39 AM

Latest Report: Feb 12, 2016 at 2:15 AM


Visibility: 10 mi

Pressure: 30.14 "Hg

Humidity: 67%

Dew point: 38 °F

Location of GarlandLocation

Historic Weather in Garland — Graph

°F

Garland Temperature Yesterday

Maximum temperature yesterday: 75 °F (at 1:50 PM)
Minimum temperature yesterday: 41 °F (at 7:50 AM)
Average temperature yesterday: 55 °F

High & Low Weather Summary for the Past Weeks

 TemperatureHumidityPressure
High75 °F (Jan 29, 1:50 PM)100% (Feb 7, 4:15 AM)30.52 "Hg (Feb 7, 4:15 AM)
Low30 °F (Jan 28, 6:50 AM)13% (Feb 8, 5:50 PM)29.54 "Hg (Feb 1, 5:50 PM)
Average49 °F54%30.10 "Hg
* Reported Jan 28 1:15 AM — Feb 12 1:35 AM, Garland, Weather by CustomWeather, © 2016

Note: Actual official high and low records may vary slightly from our data, if they occured in-between our weather recording intervals... More about our weather records

Advertising

Garland Weather History for the Previous 24 Hours

 ConditionsComfort  
Time TempWeatherWind HumidityBarometerVisibility
1:35 AM
Fri, Feb 12
49 °FClear.6 mph68%30.14 "Hg10 mi
1:15 AM50 °FClear.5 mph69%30.13 "Hg10 mi
12:55 AM50 °FClear.3 mph67%30.13 "Hg10 mi
12:35 AM51 °FClear.3 mph64%30.13 "Hg10 mi
12:15 AM52 °FClear.6 mph63%30.13 "Hg10 mi
11:55 PM
Thu, Feb 11
52 °FClear.6 mph63%30.13 "Hg10 mi
11:35 PM53 °FClear.6 mph63%30.13 "Hg10 mi
10:55 PM54 °FClear.7 mph57%30.12 "Hg10 mi
10:35 PM54 °FClear.5 mph57%30.12 "Hg10 mi
10:15 PM56 °FClear.7 mph51%30.11 "Hg10 mi
9:55 PM53 °FClear.3 mph55%30.11 "Hg10 mi
9:35 PM56 °FClear.3 mph49%30.11 "Hg10 mi
8:55 PM59 °FClear.3 mph42%30.11 "Hg10 mi
8:35 PM58 °FClear.7 mph47%30.12 "Hg10 mi
7:55 PM59 °FClear.No wind41%30.10 "Hg10 mi
7:35 PM59 °FClear.No wind39%30.09 "Hg10 mi
7:15 PM64 °FClear.No wind33%30.09 "Hg10 mi
6:50 PM63 °FClear.3 mph32%30.09 "Hg10 mi
5:50 PM70 °FSunny.5 mph25%30.07 "Hg10 mi
2:50 PM75 °FSunny.5 mph18%30.05 "Hg10 mi
1:50 PM75 °FSunny.9 mph18%30.07 "Hg10 mi
12:50 PM73 °FSunny.13 mph19%30.09 "Hg10 mi
11:58 AM72 °FSunny.9 mph22%30.11 "Hg10 mi
10:50 AM64 °FSunny.No wind32%30.12 "Hg10 mi
9:50 AM57 °FSunny.7 mph48%30.12 "Hg10 mi
8:50 AM50 °FSunny.6 mph58%30.12 "Hg10 mi
7:50 AM41 °FSunny.6 mph76%30.10 "Hg10 mi
6:50 AM43 °FClear.No wind71%30.09 "Hg10 mi
5:15 AM44 °FClear.9 mph66%30.05 "Hg10 mi
4:55 AM44 °FClear.8 mph67%30.05 "Hg10 mi
4:35 AM44 °FClear.8 mph67%30.04 "Hg10 mi
4:15 AM45 °FClear.9 mph64%30.04 "Hg10 mi
3:55 AM47 °FClear.10 mph62%30.04 "Hg10 mi
3:35 AM47 °FClear.12 mph61%30.04 "Hg10 mi
3:15 AM47 °FClear.10 mph61%30.04 "Hg10 mi
2:55 AM48 °FClear.10 mph60%30.04 "Hg10 mi
2:35 AM48 °FClear.10 mph59%30.04 "Hg10 mi
2:15 AM49 °FClear.10 mph59%30.04 "Hg10 mi
Weather by CustomWeather, © 2016

See weather overviewHow to use our weather pages